Time,TemperatureF,DewpointF,PressureIn,WindDirection,WindDirectionDegrees,WindSpeedMPH,WindSpeedGustMPH,Humidity,HourlyPrecipIn,Conditions,Clouds,dailyrainin,SoftwareType,DateUTC
2013-05-02 00:02:00,46.0,-99.9,-100.00,West,270,1.0,1.0,-999,-99.99,,,-99.99,,2013-05-02 07:02:00,
2013-05-02 00:11:00,46.0,-99.9,-100.00,West,270,1.0,1.0,-999,-99.99,,,-99.99,,2013-05-02 07:11:00,
2013-05-02 01:02:00,46.0,-99.9,-100.00,WNW,296,7.0,12.0,-999,-99.99,,,-99.99,,2013-05-02 08:02:00,
2013-05-02 01:11:00,46.0,-99.9,-100.00,WNW,296,7.0,12.0,-999,-99.99,,,-99.99,,2013-05-02 08:11:00,
2013-05-02 02:02:00,39.0,-99.9,-100.00,WSW,257,2.0,5.0,-999,-99.99,,,-99.99,,2013-05-02 09:02:00,
2013-05-02 02:12:00,39.0,-99.9,-100.00,WSW,257,2.0,5.0,-999,-99.99,,,-99.99,,2013-05-02 09:12:00,
2013-05-02 03:03:00,41.0,-99.9,-100.00,NW,326,1.0,1.0,-999,-99.99,,,-99.99,,2013-05-02 10:03:00,
2013-05-02 03:12:00,41.0,-99.9,-100.00,NW,326,1.0,1.0,-999,-99.99,,,-99.99,,2013-05-02 10:12:00,
2013-05-02 04:02:00,44.0,-99.9,-100.00,NNW,343,1.0,3.0,-999,-99.99,,,-99.99,,2013-05-02 11:02:00,
2013-05-02 04:12:00,44.0,-99.9,-100.00,NNW,343,1.0,3.0,-999,-99.99,,,-99.99,,2013-05-02 11:12:00,
2013-05-02 05:02:00,41.0,-99.9,-100.00,NW,317,2.0,3.0,-999,-99.99,,,-99.99,,2013-05-02 12:02:00,
2013-05-02 05:12:00,41.0,-99.9,-100.00,NW,317,2.0,3.0,-999,-99.99,,,-99.99,,2013-05-02 12:12:00,
2013-05-02 06:01:00,43.0,-99.9,-100.00,WNW,287,1.0,5.0,-999,-99.99,,,-99.99,,2013-05-02 13:01:00,
2013-05-02 06:11:00,43.0,-99.9,-100.00,WNW,287,1.0,5.0,-999,-99.99,,,-99.99,,2013-05-02 13:11:00,
2013-05-02 07:02:00,41.0,-99.9,-100.00,North,358,1.0,3.0,-999,-99.99,,,-99.99,,2013-05-02 14:02:00,
2013-05-02 07:11:00,41.0,-99.9,-100.00,North,358,1.0,3.0,-999,-99.99,,,-99.99,,2013-05-02 14:11:00,
2013-05-02 08:02:00,47.0,-99.9,-100.00,North,353,3.0,7.0,-999,-99.99,,,-99.99,,2013-05-02 15:02:00,
2013-05-02 08:12:00,47.0,-99.9,-100.00,North,353,3.0,7.0,-999,-99.99,,,-99.99,,2013-05-02 15:12:00,
2013-05-02 09:03:00,51.0,-99.9,-100.00,North,353,6.0,12.0,-999,-99.99,,,-99.99,,2013-05-02 16:03:00,
2013-05-02 09:13:00,51.0,-99.9,-100.00,North,353,6.0,12.0,-999,-99.99,,,-99.99,,2013-05-02 16:13:00,
2013-05-02 10:02:00,56.0,-99.9,-100.00,SSE,150,1.0,3.0,-999,-99.99,,,-99.99,,2013-05-02 17:02:00,
2013-05-02 10:12:00,56.0,-99.9,-100.00,SSE,150,1.0,3.0,-999,-99.99,,,-99.99,,2013-05-02 17:12:00,
2013-05-02 11:02:00,60.0,-99.9,-100.00,NNE,14,2.0,6.0,-999,-99.99,,,-99.99,,2013-05-02 18:02:00,
2013-05-02 11:12:00,60.0,-99.9,-100.00,NNE,14,2.0,6.0,-999,-99.99,,,-99.99,,2013-05-02 18:12:00,
2013-05-02 12:01:00,64.0,-99.9,-100.00,ESE,115,3.0,7.0,-999,-99.99,,,-99.99,,2013-05-02 19:01:00,
2013-05-02 12:11:00,64.0,-99.9,-100.00,ESE,115,3.0,7.0,-999,-99.99,,,-99.99,,2013-05-02 19:11:00,
2013-05-02 13:02:00,66.0,-99.9,-100.00,ENE,72,6.0,12.0,-999,-99.99,,,-99.99,,2013-05-02 20:02:00,
2013-05-02 13:12:00,66.0,-99.9,-100.00,ENE,72,6.0,12.0,-999,-99.99,,,-99.99,,2013-05-02 20:12:00,
2013-05-02 14:01:00,69.0,-99.9,-100.00,ESE,123,5.0,14.0,-999,-99.99,,,-99.99,,2013-05-02 21:01:00,
2013-05-02 14:12:00,69.0,-99.9,-100.00,ESE,123,5.0,14.0,-999,-99.99,,,-99.99,,2013-05-02 21:12:00,
2013-05-02 15:03:00,72.0,-99.9,-100.00,ESE,120,3.0,12.0,-999,-99.99,,,-99.99,,2013-05-02 22:03:00,
2013-05-02 15:13:00,72.0,-99.9,-100.00,ESE,120,3.0,12.0,-999,-99.99,,,-99.99,,2013-05-02 22:13:00,
2013-05-02 16:02:00,74.0,-99.9,-100.00,SE,130,3.0,10.0,-999,-99.99,,,-99.99,,2013-05-02 23:02:00,
2013-05-02 16:12:00,74.0,-99.9,-100.00,SE,130,3.0,10.0,-999,-99.99,,,-99.99,,2013-05-02 23:12:00,
2013-05-02 17:02:00,76.0,-99.9,-100.00,SE,139,3.0,9.0,-999,-99.99,,,-99.99,,2013-05-03 00:02:00,
2013-05-02 17:12:00,76.0,-99.9,-100.00,SE,139,3.0,9.0,-999,-99.99,,,-99.99,,2013-05-03 00:12:00,
2013-05-02 18:02:00,76.0,-99.9,-100.00,SE,131,5.0,12.0,-999,-99.99,,,-99.99,,2013-05-03 01:02:00,
2013-05-02 18:11:00,76.0,-99.9,-100.00,SE,131,5.0,12.0,-999,-99.99,,,-99.99,,2013-05-03 01:11:00,
2013-05-02 19:02:00,74.0,-99.9,-100.00,ESE,108,7.0,12.0,-999,-99.99,,,-99.99,,2013-05-03 02:02:00,
2013-05-02 19:11:00,74.0,-99.9,-100.00,ESE,108,7.0,12.0,-999,-99.99,,,-99.99,,2013-05-03 02:11:00,
2013-05-02 20:01:00,72.0,-99.9,-100.00,ESE,102,7.0,9.0,-999,-99.99,,,-99.99,,2013-05-03 03:01:00,
2013-05-02 20:11:00,72.0,-99.9,-100.00,ESE,102,7.0,9.0,-999,-99.99,,,-99.99,,2013-05-03 03:11:00,
2013-05-02 21:03:00,69.0,-99.9,-100.00,East,99,2.0,6.0,-999,-99.99,,,-99.99,,2013-05-03 04:03:00,
2013-05-02 21:13:00,69.0,-99.9,-100.00,East,99,2.0,6.0,-999,-99.99,,,-99.99,,2013-05-03 04:13:00,
2013-05-02 22:03:00,65.0,-99.9,-100.00,SSE,164,2.0,6.0,-999,-99.99,,,-99.99,,2013-05-03 05:03:00,
2013-05-02 22:12:00,65.0,-99.9,-100.00,SSE,164,2.0,6.0,-999,-99.99,,,-99.99,,2013-05-03 05:12:00,
2013-05-02 23:02:00,64.0,-99.9,-100.00,North,360,1.0,2.0,-999,-99.99,,,-99.99,,2013-05-03 06:02:00,
2013-05-02 23:12:00,64.0,-99.9,-100.00,North,360,1.0,2.0,-999,-99.99,,,-99.99,,2013-05-03 06:12:00,